Regional Weather Roundup
Issued by NWS Sterling, VA

Home | Current Version | Previous Version | Text Only | Print | Product List | Glossary On
Versions: 1 2 3 4 5 6 7 8 9 10 11 12 13 14 15 16 17 18 19 20 21 22 23 24 25 26 27 28 29 30 31 32 33 34 35 36 37 38 39 40 41 42 43 44 45 46 47 48 49 50
000
ASUS41 KLWX 301210
RWRLWX

REGIONAL WEATHER ROUNDUP
NATIONAL WEATHER SERVICE BALTIMORE MD/WASHINGTON DC
800 AM EDT SAT AUG 30 2014

Note: "FAIR" indicates few or no clouds below 12,000 feet
with no significant weather and/or obstructions to visibility.
 TC=TEMPERATURE CELSIUS

 * =Non NWS site. Station does not report precipitation (e.g. rain,
    snow, etc.), thunder, or fog.

DCZ001-MDZ009-015-VAZ040>042-051-053>054-301300-
WASHINGTON METRO

CITY           SKY/WX    TMP DP  RH WIND       PRES   REMARKS
WASHINGTON NAT CLOUDY    73  61  65 S7        30.24S
DULLES         CLOUDY    68  63  84 S5        30.23S
ANDREWS AFB    CLOUDY    67  63  87 SE6       30.24S
QUANTICO       CLOUDY    72  64  76 S8        30.24R
COLLEGE PARK*  CLOUDY    70  64  83 CALM      30.24R
LEESBURG*      CLOUDY    70  66  88 S5        30.24S
MANASSAS*      CLOUDY    70  66  88 CALM      30.23S
GAITHERSBURG*  CLOUDY    66  63  88 CALM      30.28R

$$

MDZ006>007-011-014-301300-
BALTIMORE METRO

CITY           SKY/WX    TMP DP  RH WIND       PRES   REMARKS
BWI AIRPORT    PTSUNNY   69  62  78 E3        30.24S
MD SCIENCE CTR   N/A     72  60  66 MISG      30.24S
MARTIN STATE   CLOUDY    72  66  83 E7        30.25S
ANNAPOLIS      CLOUDY    72  63  73 SE9       30.24S
FORT MEADE*    CLOUDY    63  61  94 CALM      30.26S

$$

MDZ012-015-019>023-301300-
MARYLAND EASTERN SHORE

CITY           SKY/WX    TMP DP  RH WIND       PRES   REMARKS
OCEAN CITY     SUNNY     73  63  70 SE5       30.24S
SALISBURY      CLOUDY    66  60  81 CALM      30.25R
BAY BRIDGE AP*   N/A     70  61  73 SE6       30.24S
CAMBRIDGE*     CLOUDY    64  61  88 SE3       30.24S
EASTON*        CLOUDY    66  66 100 CALM      30.28S

$$

MDZ017>025-301300-
SOUTHERN MARYLAND

CITY           SKY/WX    TMP DP  RH WIND       PRES   REMARKS
PATUXENT RIVER PTSUNNY   73  62  68 S6        30.23S
ST INIGOES     CLOUDY    72  62  71 CALM      30.23R
LEONARDTOWN*   CLOUDY    70  61  73 CALM      30.25S

$$

MDZ003>005-301300-
NORTH CENTRAL MARYLAND

CITY           SKY/WX    TMP DP  RH WIND       PRES   REMARKS
FREDERICK*     NOT AVBL
HAGERSTOWN APT CLOUDY    67  61  81 S3        30.22R
WESTMINSTER*   CLOUDY    66  63  88 SE7       30.24S

$$

MDZ501>502-301300-
WESTERN MARYLAND

CITY           SKY/WX    TMP DP  RH WIND       PRES   REMARKS
OAKLAND*       SUNNY     64 N/A N/A S9        30.25S
CUMBERLAND*    SUNNY     64  59  82 CALM      30.25R

$$

VAZ025>031-301300-
SHENANDOAH VALLEY

CITY           SKY/WX    TMP DP  RH WIND       PRES   REMARKS
WINCHESTER*    PTSUNNY   66  61  82 CALM      30.21R
STAUNTON*      CLOUDY    69  63  80 S5        30.25R

$$

WVZ021-048>050-054>055-301300-
EASTERN WEST VIRGINIA PANHANDLE

CITY           SKY/WX    TMP DP  RH WIND       PRES   REMARKS
MARTINSBURG    MOSUNNY   65  57  75 NW3       30.22R
PETERSBURG*    NOT AVBL

$$

VAZ036>039-050-301300-
CENTRAL FOOTHILLS

CITY           SKY/WX    TMP DP  RH WIND       PRES   REMARKS
CHARLOTTESVILL CLOUDY    68  63  84 CALM      30.24R
ORANGE*        CLOUDY    68  63  83 CALM      30.25R

$$

VAZ055>057-301300-
NORTH AND CENTRAL PIEDMONT

CITY           SKY/WX    TMP DP  RH WIND       PRES   REMARKS
FREDERICKSBRG* CLOUDY    69  65  86 CALM      30.22S
STAFFORD*      PTSUNNY   67  67 100 CALM      30.27S

$$

NCZ024-NYZ072-PAZ021-071-VAZ022-071-301300-
OTHER REGIONAL OBSERVATIONS

CITY           SKY/WX    TMP DP  RH WIND       PRES   REMARKS
NEW YORK CITY  MOSUNNY   69  55  60 CALM      30.30S
PHILADELPHIA   PTSUNNY   66  59  78 E3        30.27R
PITTSBURGH     PTSUNNY   66  61  84 SE7       30.13R
ROANOKE        CLOUDY    71  68  90 W3        30.27R
RICHMOND       PTSUNNY   72  64  76 SE5       30.23R
RALEIGH        CLOUDY    73  67  81 SE3       30.23R

$$

ANZ530>537-301300-
MARINE OBSERVATIONS

STATION/POSITION TIME  TEMP    WIND        PRES
                       AIR SEA DIR/SP/G
                 (UTC) (F)     (DEG/KT/KT) (MB)
THOMAS PT LIGHT  1200   70 77  130/  8/  9 1024.9R
BALT KEY BRIDGE  1200   77     140/  9/ 10 1023.6S
COVE POINT       1200   71     140/ 10/ 12 1023.5F
LEWISETTA        1200   73 78  140/  4/  6 1023.3S
SOLOMONS ISLAND  1200      78                N/A
PINEY POINT      1200          170/ 11/ 12   N/A

$$



USA.gov is the U.S. government's official web portal to all federal, state and local government web resources and services.